Year,Month,Day,Hour,Minute,Value (Times are PST for temperature in C)
2015,07,18,00,00,21.70
2015,07,18,00,01,21.60
2015,07,18,00,02,21.60
2015,07,18,00,03,21.60
2015,07,18,00,04,21.60
2015,07,18,00,05,21.50
2015,07,18,00,06,21.50
2015,07,18,00,07,21.40
2015,07,18,00,08,21.40
2015,07,18,00,09,21.40
2015,07,18,00,10,21.30
2015,07,18,00,11,21.30
2015,07,18,00,12,21.30
2015,07,18,00,13,21.20
2015,07,18,00,14,21.20
2015,07,18,00,15,21.20
2015,07,18,00,16,21.10
2015,07,18,00,17,21.10
2015,07,18,00,18,21.00
2015,07,18,00,19,21.00
2015,07,18,00,20,21.00
2015,07,18,00,21,20.90
2015,07,18,00,22,20.90
2015,07,18,00,23,20.90
2015,07,18,00,24,20.80
2015,07,18,00,25,20.80
2015,07,18,00,26,20.80
2015,07,18,00,27,20.80
2015,07,18,00,28,20.80
2015,07,18,00,29,20.80
2015,07,18,00,30,20.80
2015,07,18,00,31,20.80
2015,07,18,00,32,20.70
2015,07,18,00,33,20.70
2015,07,18,00,34,20.70
2015,07,18,00,35,20.70
2015,07,18,00,36,20.70
2015,07,18,00,37,20.70
2015,07,18,00,38,20.60
2015,07,18,00,39,20.60
2015,07,18,00,40,20.60
2015,07,18,00,41,20.60
2015,07,18,00,42,20.50
2015,07,18,00,43,20.50
2015,07,18,00,44,20.50
2015,07,18,00,45,20.40
2015,07,18,00,46,20.40
2015,07,18,00,47,20.40
2015,07,18,00,48,20.40
2015,07,18,00,49,20.30
2015,07,18,00,50,20.30
2015,07,18,00,51,20.30
2015,07,18,00,52,20.30
2015,07,18,00,53,20.30
2015,07,18,00,54,20.40
2015,07,18,00,55,20.40
2015,07,18,00,56,20.40
2015,07,18,00,57,20.40
2015,07,18,00,58,20.40
2015,07,18,00,59,20.40
2015,07,18,01,00,20.50
2015,07,18,01,01,20.50
2015,07,18,01,02,20.50
2015,07,18,01,03,20.50
2015,07,18,01,04,20.50
2015,07,18,01,05,20.40
2015,07,18,01,06,20.40
2015,07,18,01,07,20.40
2015,07,18,01,08,20.40
2015,07,18,01,09,20.30
2015,07,18,01,10,20.30
2015,07,18,01,11,20.30
2015,07,18,01,12,20.20
2015,07,18,01,13,20.20
2015,07,18,01,14,20.20
2015,07,18,01,15,20.20
2015,07,18,01,16,20.10
2015,07,18,01,17,20.10
2015,07,18,01,18,20.00
2015,07,18,01,19,20.00
2015,07,18,01,20,20.00
2015,07,18,01,21,19.90
2015,07,18,01,22,19.90
2015,07,18,01,23,19.90
2015,07,18,01,24,19.80
2015,07,18,01,25,19.80
2015,07,18,01,26,19.80
2015,07,18,01,27,19.70
2015,07,18,01,28,19.70
2015,07,18,01,29,19.70
2015,07,18,01,30,19.70
2015,07,18,01,31,19.70
2015,07,18,01,32,19.60
2015,07,18,01,33,19.60
2015,07,18,01,34,19.60
2015,07,18,01,35,19.60
2015,07,18,01,36,19.60
2015,07,18,01,37,19.60
2015,07,18,01,38,19.60
2015,07,18,01,39,19.60
2015,07,18,01,40,19.60
2015,07,18,01,41,19.60
2015,07,18,01,42,19.60
2015,07,18,01,43,19.60
2015,07,18,01,44,19.60
2015,07,18,01,45,19.60
2015,07,18,01,46,19.60
2015,07,18,01,47,19.60
2015,07,18,01,48,19.60
2015,07,18,01,49,19.60
2015,07,18,01,50,19.50
2015,07,18,01,51,19.50
2015,07,18,01,52,19.40
2015,07,18,01,53,19.40
2015,07,18,01,54,19.40
2015,07,18,01,55,19.40
2015,07,18,01,56,19.30
2015,07,18,01,57,19.30
2015,07,18,01,58,19.30
2015,07,18,01,59,19.20
2015,07,18,02,00,19.20
2015,07,18,02,01,19.20
2015,07,18,02,02,19.20
2015,07,18,02,03,19.10
2015,07,18,02,04,19.10
2015,07,18,02,05,19.10
2015,07,18,02,06,19.00
2015,07,18,02,07,19.00
2015,07,18,02,08,18.90
2015,07,18,02,09,18.90
2015,07,18,02,10,18.90
2015,07,18,02,11,18.80
2015,07,18,02,12,18.80
2015,07,18,02,13,18.80
2015,07,18,02,14,18.70
2015,07,18,02,15,18.70
2015,07,18,02,16,18.60
2015,07,18,02,17,18.60
2015,07,18,02,18,18.60
2015,07,18,02,19,18.50
2015,07,18,02,20,18.50
2015,07,18,02,21,18.40
2015,07,18,02,22,18.40
2015,07,18,02,23,18.30
2015,07,18,02,24,18.30
2015,07,18,02,25,18.30
2015,07,18,02,26,18.30
2015,07,18,02,27,18.30
2015,07,18,02,28,18.20
2015,07,18,02,29,18.20
2015,07,18,02,30,18.20
2015,07,18,02,31,18.20
2015,07,18,02,32,18.20
2015,07,18,02,33,18.20
2015,07,18,02,34,18.20
2015,07,18,02,35,18.10
2015,07,18,02,36,18.10
2015,07,18,02,37,18.10
2015,07,18,02,38,18.10
2015,07,18,02,39,18.10
2015,07,18,02,40,18.10
2015,07,18,02,41,18.10
2015,07,18,02,42,18.00
2015,07,18,02,43,18.00
2015,07,18,02,44,18.00
2015,07,18,02,45,17.90
2015,07,18,02,46,17.90
2015,07,18,02,47,17.90
2015,07,18,02,48,17.90
2015,07,18,02,49,17.90
2015,07,18,02,50,17.90
2015,07,18,02,51,17.90
2015,07,18,02,52,17.80
2015,07,18,02,53,17.80
2015,07,18,02,54,17.80
2015,07,18,02,55,17.80
2015,07,18,02,56,17.70
2015,07,18,02,57,17.70
2015,07,18,02,58,17.70
2015,07,18,02,59,17.70
2015,07,18,03,00,17.60
2015,07,18,03,01,17.60
2015,07,18,03,02,17.60
2015,07,18,03,03,17.60
2015,07,18,03,04,17.60
2015,07,18,03,05,17.60
2015,07,18,03,06,17.50
2015,07,18,03,07,17.50
2015,07,18,03,08,17.50
2015,07,18,03,09,17.40
2015,07,18,03,10,17.40
2015,07,18,03,11,17.40
2015,07,18,03,12,17.40
2015,07,18,03,13,17.40
2015,07,18,03,14,17.40
2015,07,18,03,15,17.30
2015,07,18,03,16,17.30
2015,07,18,03,17,17.30
2015,07,18,03,18,17.30
2015,07,18,03,19,17.30
2015,07,18,03,20,17.30
2015,07,18,03,21,17.30
2015,07,18,03,22,17.30
2015,07,18,03,23,17.30
2015,07,18,03,24,17.30
2015,07,18,03,25,17.30
2015,07,18,03,26,17.30
2015,07,18,03,27,17.30
2015,07,18,03,28,17.30
2015,07,18,03,29,17.30
2015,07,18,03,30,17.20
2015,07,18,03,31,17.20
2015,07,18,03,32,17.20
2015,07,18,03,33,17.20
2015,07,18,03,34,17.20
2015,07,18,03,35,17.20
2015,07,18,03,36,17.20
2015,07,18,03,37,17.20
2015,07,18,03,38,17.20
2015,07,18,03,39,17.20
2015,07,18,03,40,17.20
2015,07,18,03,41,17.20
2015,07,18,03,42,17.20
2015,07,18,03,43,17.20
2015,07,18,03,44,17.20
2015,07,18,03,45,17.10
2015,07,18,03,46,17.10
2015,07,18,03,47,17.10
2015,07,18,03,48,17.10
2015,07,18,03,49,17.10
2015,07,18,03,50,17.10
2015,07,18,03,51,17.10
2015,07,18,03,52,17.10
2015,07,18,03,53,17.10
2015,07,18,03,54,17.10
2015,07,18,03,55,17.10
2015,07,18,03,56,17.10
2015,07,18,03,57,17.10
2015,07,18,03,58,17.10
2015,07,18,03,59,17.10
2015,07,18,04,00,17.10
2015,07,18,04,01,17.10
2015,07,18,04,02,17.10
2015,07,18,04,03,17.10
2015,07,18,04,04,17.10
2015,07,18,04,05,17.10
2015,07,18,04,06,17.10
2015,07,18,04,07,17.10
2015,07,18,04,08,17.10
2015,07,18,04,09,17.20
2015,07,18,04,10,17.20
2015,07,18,04,11,17.20
2015,07,18,04,12,17.30
2015,07,18,04,13,17.40
2015,07,18,04,14,17.40
2015,07,18,04,15,17.40
2015,07,18,04,16,17.40
2015,07,18,04,17,17.40
2015,07,18,04,18,17.50
2015,07,18,04,19,17.50
2015,07,18,04,20,17.50
2015,07,18,04,21,17.50
2015,07,18,04,22,17.50
2015,07,18,04,23,17.50
2015,07,18,04,24,17.50
2015,07,18,04,25,17.50
2015,07,18,04,26,17.50
2015,07,18,04,27,17.40
2015,07,18,04,28,17.40
2015,07,18,04,29,17.40
2015,07,18,04,30,17.40
2015,07,18,04,31,17.30
2015,07,18,04,32,17.30
2015,07,18,04,33,17.30
2015,07,18,04,34,17.30
2015,07,18,04,35,17.20
2015,07,18,04,36,17.20
2015,07,18,04,37,17.20
2015,07,18,04,38,17.10
2015,07,18,04,39,17.10
2015,07,18,04,40,17.10
2015,07,18,04,41,17.00
2015,07,18,04,42,17.00
2015,07,18,04,43,17.00
2015,07,18,04,44,16.90
2015,07,18,04,45,16.90
2015,07,18,04,46,16.90
2015,07,18,04,47,16.80
2015,07,18,04,48,16.80
2015,07,18,04,49,16.80
2015,07,18,04,50,16.80
2015,07,18,04,51,16.70
2015,07,18,04,52,16.70
2015,07,18,04,53,16.70
2015,07,18,04,54,16.70
2015,07,18,04,55,16.70
2015,07,18,04,56,16.70
2015,07,18,04,57,16.60
2015,07,18,04,58,16.60
2015,07,18,04,59,16.60
2015,07,18,05,00,16.60
2015,07,18,05,01,16.60
2015,07,18,05,02,16.60
2015,07,18,05,03,16.60
2015,07,18,05,04,16.60
2015,07,18,05,05,16.60
2015,07,18,05,06,16.50
2015,07,18,05,07,16.50
2015,07,18,05,08,16.50
2015,07,18,05,09,16.50
2015,07,18,05,10,16.50
2015,07,18,05,11,16.50
2015,07,18,05,12,16.50
2015,07,18,05,13,16.40
2015,07,18,05,14,16.40
2015,07,18,05,15,16.40
2015,07,18,05,16,16.40
2015,07,18,05,17,16.40
2015,07,18,05,18,16.40
2015,07,18,05,19,16.40
2015,07,18,05,20,16.30
2015,07,18,05,21,16.30
2015,07,18,05,22,16.30
2015,07,18,05,23,16.30
2015,07,18,05,24,16.30
2015,07,18,05,25,16.30
2015,07,18,05,26,16.30
2015,07,18,05,27,16.30
2015,07,18,05,28,16.30
2015,07,18,05,29,16.30
2015,07,18,05,30,16.20
2015,07,18,05,31,16.20
2015,07,18,05,32,16.20
2015,07,18,05,33,16.20
2015,07,18,05,34,16.20
2015,07,18,05,35,16.20
2015,07,18,05,36,16.20
2015,07,18,05,37,16.20
2015,07,18,05,38,16.20
2015,07,18,05,39,16.20
2015,07,18,05,40,16.20
2015,07,18,05,41,16.10
2015,07,18,05,42,16.10
2015,07,18,05,43,16.10
2015,07,18,05,44,16.10
2015,07,18,05,45,16.10
2015,07,18,05,46,16.10
2015,07,18,05,47,16.10
2015,07,18,05,48,16.10
2015,07,18,05,49,16.10
2015,07,18,05,50,16.10
2015,07,18,05,51,16.10
2015,07,18,05,52,16.10
2015,07,18,05,53,16.10
2015,07,18,05,54,16.10
2015,07,18,05,55,16.10
2015,07,18,05,56,16.10
2015,07,18,05,57,16.10
2015,07,18,05,58,16.10
2015,07,18,05,59,16.10
2015,07,18,06,00,16.10
2015,07,18,06,01,16.10
2015,07,18,06,02,16.10
2015,07,18,06,03,16.10
2015,07,18,06,04,16.10
2015,07,18,06,05,16.10
2015,07,18,06,06,16.10
2015,07,18,06,07,16.10
2015,07,18,06,08,16.10
2015,07,18,06,09,16.10
2015,07,18,06,10,16.10
2015,07,18,06,11,16.10
2015,07,18,06,12,16.10
2015,07,18,06,13,16.10
2015,07,18,06,14,16.10
2015,07,18,06,15,16.10
2015,07,18,06,16,16.10
2015,07,18,06,17,16.10
2015,07,18,06,18,16.10
2015,07,18,06,19,16.10
2015,07,18,06,20,16.20
2015,07,18,06,21,16.20
2015,07,18,06,22,16.20
2015,07,18,06,23,16.20
2015,07,18,06,24,16.20
2015,07,18,06,25,16.20
2015,07,18,06,26,16.20
2015,07,18,06,27,16.30
2015,07,18,06,28,16.30
2015,07,18,06,29,16.30
2015,07,18,06,30,16.30
2015,07,18,06,31,16.40
2015,07,18,06,32,16.40
2015,07,18,06,33,16.40
2015,07,18,06,34,16.40
2015,07,18,06,35,16.50
2015,07,18,06,36,16.50
2015,07,18,06,37,16.50
2015,07,18,06,38,16.50
2015,07,18,06,39,16.50
2015,07,18,06,40,16.60
2015,07,18,06,41,16.60
2015,07,18,06,42,16.60
2015,07,18,06,43,16.60
2015,07,18,06,44,16.60
2015,07,18,06,45,16.60
2015,07,18,06,46,16.60
2015,07,18,06,47,16.60
2015,07,18,06,48,16.60
2015,07,18,06,49,16.60
2015,07,18,06,50,16.60
2015,07,18,06,51,16.60
2015,07,18,06,52,16.60
2015,07,18,06,53,16.60
2015,07,18,06,54,16.70
2015,07,18,06,55,16.70
2015,07,18,06,56,16.70
2015,07,18,06,57,16.70
2015,07,18,06,58,16.70
2015,07,18,06,59,16.80
2015,07,18,07,00,16.80
2015,07,18,07,01,16.80
2015,07,18,07,02,16.80
2015,07,18,07,03,16.80
2015,07,18,07,04,16.90
2015,07,18,07,05,16.90
2015,07,18,07,06,16.90
2015,07,18,07,07,17.00
2015,07,18,07,08,17.00
2015,07,18,07,09,17.10
2015,07,18,07,10,17.10
2015,07,18,07,11,17.10
2015,07,18,07,12,17.10
2015,07,18,07,13,17.20
2015,07,18,07,14,17.20
2015,07,18,07,15,17.20
2015,07,18,07,16,17.30
2015,07,18,07,17,17.30
2015,07,18,07,18,17.30
2015,07,18,07,19,17.40
2015,07,18,07,20,17.40
2015,07,18,07,21,17.50
2015,07,18,07,22,17.60
2015,07,18,07,23,17.60
2015,07,18,07,24,17.60
2015,07,18,07,25,17.70
2015,07,18,07,26,17.70
2015,07,18,07,27,17.80
2015,07,18,07,28,17.80
2015,07,18,07,29,17.80
2015,07,18,07,30,17.90
2015,07,18,07,31,17.90
2015,07,18,07,32,18.00
2015,07,18,07,33,18.00
2015,07,18,07,34,18.10
2015,07,18,07,35,18.10
2015,07,18,07,36,18.20
2015,07,18,07,37,18.20
2015,07,18,07,38,18.20
2015,07,18,07,39,18.20
2015,07,18,07,40,18.20
2015,07,18,07,41,18.30
2015,07,18,07,42,18.30
2015,07,18,07,43,18.30
2015,07,18,07,44,18.30
2015,07,18,07,45,18.30
2015,07,18,07,46,18.40
2015,07,18,07,47,18.40
2015,07,18,07,48,18.40
2015,07,18,07,49,18.40
2015,07,18,07,50,18.40
2015,07,18,07,51,18.40
2015,07,18,07,52,18.40
2015,07,18,07,53,18.40
2015,07,18,07,54,18.40
2015,07,18,07,55,18.50
2015,07,18,07,56,18.50
2015,07,18,07,57,18.60
2015,07,18,07,58,18.60
2015,07,18,07,59,18.70
2015,07,18,08,00,18.70
2015,07,18,08,01,18.80
2015,07,18,08,02,18.90
2015,07,18,08,03,19.00
2015,07,18,08,04,19.00
2015,07,18,08,05,19.10
2015,07,18,08,06,19.20
2015,07,18,08,07,19.20
2015,07,18,08,08,19.30
2015,07,18,08,09,19.30
2015,07,18,08,10,19.40
2015,07,18,08,11,19.50
2015,07,18,08,12,19.50
2015,07,18,08,13,19.60
2015,07,18,08,14,19.70
2015,07,18,08,15,19.70
2015,07,18,08,16,19.80
2015,07,18,08,17,19.80
2015,07,18,08,18,19.80
2015,07,18,08,19,19.90
2015,07,18,08,20,19.90
2015,07,18,08,21,19.90
2015,07,18,08,22,19.90
2015,07,18,08,23,20.00
2015,07,18,08,24,20.00
2015,07,18,08,25,20.00
2015,07,18,08,26,20.10
2015,07,18,08,27,20.10
2015,07,18,08,28,20.10
2015,07,18,08,29,20.20
2015,07,18,08,30,20.20
2015,07,18,08,31,20.30
2015,07,18,08,32,20.30
2015,07,18,08,33,20.30
2015,07,18,08,34,20.30
2015,07,18,08,35,20.40
2015,07,18,08,36,20.40
2015,07,18,08,37,20.40
2015,07,18,08,38,20.40
2015,07,18,08,39,20.40
2015,07,18,08,40,20.40
2015,07,18,08,41,20.40
2015,07,18,08,42,20.40
2015,07,18,08,43,20.40
2015,07,18,08,44,20.40
2015,07,18,08,45,20.40
2015,07,18,08,46,20.40
2015,07,18,08,47,20.40
2015,07,18,08,48,20.40
2015,07,18,08,49,20.40
2015,07,18,08,50,20.50
2015,07,18,08,51,20.50
2015,07,18,08,52,20.60
2015,07,18,08,53,20.60
2015,07,18,08,54,20.70
2015,07,18,08,55,20.80
2015,07,18,08,56,20.80
2015,07,18,08,57,20.90
2015,07,18,08,58,21.00
2015,07,18,08,59,21.10
2015,07,18,09,00,21.10
2015,07,18,09,01,21.30
2015,07,18,09,02,21.40
2015,07,18,09,03,21.40
2015,07,18,09,04,21.40
2015,07,18,09,05,21.40
2015,07,18,09,06,21.40
2015,07,18,09,07,21.30
2015,07,18,09,08,21.20
2015,07,18,09,09,21.20
2015,07,18,09,10,21.20
2015,07,18,09,11,21.20
2015,07,18,09,12,21.20
2015,07,18,09,13,21.20
2015,07,18,09,14,21.20
2015,07,18,09,15,21.20
2015,07,18,09,16,21.20
2015,07,18,09,17,21.20
2015,07,18,09,18,21.10
2015,07,18,09,19,21.10
2015,07,18,09,20,21.10
2015,07,18,09,21,21.00
2015,07,18,09,22,20.90
2015,07,18,09,23,20.90
2015,07,18,09,24,20.90
2015,07,18,09,25,20.90
2015,07,18,09,26,20.80
2015,07,18,09,27,20.80
2015,07,18,09,28,20.80
2015,07,18,09,29,20.70
2015,07,18,09,30,20.70
2015,07,18,09,31,20.60
2015,07,18,09,32,20.60
2015,07,18,09,33,20.60
2015,07,18,09,34,20.60
2015,07,18,09,35,20.60
2015,07,18,09,36,20.70
2015,07,18,09,37,20.70
2015,07,18,09,38,20.70
2015,07,18,09,39,20.70
2015,07,18,09,40,20.70
2015,07,18,09,41,20.70
2015,07,18,09,42,20.80
2015,07,18,09,43,20.80
2015,07,18,09,44,20.90
2015,07,18,09,45,20.90
2015,07,18,09,46,21.00
2015,07,18,09,47,21.10
2015,07,18,09,48,21.10
2015,07,18,09,49,21.10
2015,07,18,09,50,21.10
2015,07,18,09,51,21.20
2015,07,18,09,52,21.20
2015,07,18,09,53,21.20
2015,07,18,09,54,21.20
2015,07,18,09,55,21.30
2015,07,18,09,56,21.30
2015,07,18,09,57,21.40
2015,07,18,09,58,21.40
2015,07,18,09,59,21.50
2015,07,18,10,00,21.60
2015,07,18,10,01,21.60
2015,07,18,10,02,21.70
2015,07,18,10,03,21.70
2015,07,18,10,04,21.70
2015,07,18,10,05,21.80
2015,07,18,10,06,21.80
2015,07,18,10,07,21.80
2015,07,18,10,08,21.80
2015,07,18,10,09,21.80
2015,07,18,10,10,21.80
2015,07,18,10,11,21.80
2015,07,18,10,12,21.90
2015,07,18,10,13,21.90
2015,07,18,10,14,22.00
2015,07,18,10,15,22.00
2015,07,18,10,16,22.10
2015,07,18,10,17,22.20
2015,07,18,10,18,22.30
2015,07,18,10,19,22.30
2015,07,18,10,20,22.40
2015,07,18,10,21,22.40
2015,07,18,10,22,22.50
2015,07,18,10,23,22.50
2015,07,18,10,24,22.60
2015,07,18,10,25,22.60
2015,07,18,10,26,22.60
2015,07,18,10,27,22.60
2015,07,18,10,28,22.60
2015,07,18,10,29,22.60
2015,07,18,10,30,22.50
2015,07,18,10,31,22.50
2015,07,18,10,32,22.40
2015,07,18,10,33,22.40
2015,07,18,10,34,22.50
2015,07,18,10,35,22.50
2015,07,18,10,36,22.60
2015,07,18,10,37,22.70
2015,07,18,10,38,22.70
2015,07,18,10,39,22.70
2015,07,18,10,40,22.60
2015,07,18,10,41,22.60
2015,07,18,10,42,22.60
2015,07,18,10,43,22.50
2015,07,18,10,44,22.60
2015,07,18,10,45,22.60
2015,07,18,10,46,22.70
2015,07,18,10,47,22.70
2015,07,18,10,48,22.80
2015,07,18,10,49,22.80
2015,07,18,10,50,22.80
2015,07,18,10,51,22.80
2015,07,18,10,52,22.80
2015,07,18,10,53,22.80
2015,07,18,10,54,22.80
2015,07,18,10,55,22.80
2015,07,18,10,56,22.90
2015,07,18,10,57,22.90
2015,07,18,10,58,22.90
2015,07,18,10,59,23.00
2015,07,18,11,00,23.00
2015,07,18,11,01,23.10
2015,07,18,11,02,23.10
2015,07,18,11,03,23.10
2015,07,18,11,04,23.10
2015,07,18,11,05,23.10
2015,07,18,11,06,23.10
2015,07,18,11,07,23.10
2015,07,18,11,08,23.00
2015,07,18,11,09,23.00
2015,07,18,11,10,22.90
2015,07,18,11,11,22.90
2015,07,18,11,12,22.90
2015,07,18,11,13,22.80
2015,07,18,11,14,22.80
2015,07,18,11,15,22.80
2015,07,18,11,16,22.80
2015,07,18,11,17,22.80
2015,07,18,11,18,22.80
2015,07,18,11,19,22.70
2015,07,18,11,20,22.60
2015,07,18,11,21,22.60
2015,07,18,11,22,22.60
2015,07,18,11,23,22.70
2015,07,18,11,24,22.70
2015,07,18,11,25,22.80
2015,07,18,11,26,22.90
2015,07,18,11,27,22.90
2015,07,18,11,28,22.90
2015,07,18,11,29,22.90
2015,07,18,11,30,22.80
2015,07,18,11,31,22.80
2015,07,18,11,32,22.70
2015,07,18,11,33,22.70
2015,07,18,11,34,22.60
2015,07,18,11,35,22.50
2015,07,18,11,36,22.50
2015,07,18,11,37,22.50
2015,07,18,11,38,22.40
2015,07,18,11,39,22.50
2015,07,18,11,40,22.60
2015,07,18,11,41,22.60
2015,07,18,11,42,22.70
2015,07,18,11,43,22.70
2015,07,18,11,44,22.70
2015,07,18,11,45,22.60
2015,07,18,11,46,22.60
2015,07,18,11,47,22.60
2015,07,18,11,48,22.60
2015,07,18,11,49,22.60
2015,07,18,11,50,22.60
2015,07,18,11,51,22.60
2015,07,18,11,52,22.70
2015,07,18,11,53,22.70
2015,07,18,11,54,22.70
2015,07,18,11,55,22.60
2015,07,18,11,56,22.50
2015,07,18,11,57,22.50
2015,07,18,11,58,22.50
2015,07,18,11,59,22.60
2015,07,18,12,00,22.70
2015,07,18,12,01,22.70
2015,07,18,12,02,22.80
2015,07,18,12,03,22.90
2015,07,18,12,04,23.00
2015,07,18,12,05,23.00
2015,07,18,12,06,23.10
2015,07,18,12,07,23.10
2015,07,18,12,08,23.20
2015,07,18,12,09,23.30
2015,07,18,12,10,23.30
2015,07,18,12,11,23.40
2015,07,18,12,12,23.40
2015,07,18,12,13,23.40
2015,07,18,12,14,23.50
2015,07,18,12,15,23.50
2015,07,18,12,16,23.40
2015,07,18,12,17,23.50
2015,07,18,12,18,23.50
2015,07,18,12,19,23.60
2015,07,18,12,20,23.70
2015,07,18,12,21,23.70
2015,07,18,12,22,23.80
2015,07,18,12,23,23.80
2015,07,18,12,24,23.80
2015,07,18,12,25,23.80
2015,07,18,12,26,23.70
2015,07,18,12,27,23.60
2015,07,18,12,28,23.40
2015,07,18,12,29,23.30
2015,07,18,12,30,23.10
2015,07,18,12,31,23.00
2015,07,18,12,32,22.90
2015,07,18,12,33,22.80
2015,07,18,12,34,22.70
2015,07,18,12,35,22.70
2015,07,18,12,36,22.70
2015,07,18,12,37,22.60
2015,07,18,12,38,22.70
2015,07,18,12,39,22.70
2015,07,18,12,40,22.80
2015,07,18,12,41,22.70
2015,07,18,12,42,22.70
2015,07,18,12,43,22.60
2015,07,18,12,44,22.50
2015,07,18,12,45,22.50
2015,07,18,12,46,22.50
2015,07,18,12,47,22.40
2015,07,18,12,48,22.40
2015,07,18,12,49,22.40
2015,07,18,12,50,22.40
2015,07,18,12,51,22.40
2015,07,18,12,52,22.40
2015,07,18,12,53,22.50
2015,07,18,12,54,22.60
2015,07,18,12,55,22.70
2015,07,18,12,56,22.70
2015,07,18,12,57,22.80
2015,07,18,12,58,22.80
2015,07,18,12,59,23.00
2015,07,18,13,00,23.10
2015,07,18,13,01,23.20
2015,07,18,13,02,23.30
2015,07,18,13,03,23.40
2015,07,18,13,04,23.50
2015,07,18,13,05,23.60
2015,07,18,13,06,23.60
2015,07,18,13,07,23.60
2015,07,18,13,08,23.60
2015,07,18,13,09,23.60
2015,07,18,13,10,23.60
2015,07,18,13,11,23.50
2015,07,18,13,12,23.40
2015,07,18,13,13,23.30
2015,07,18,13,14,23.30
2015,07,18,13,15,23.20
2015,07,18,13,16,23.20
2015,07,18,13,17,23.20
2015,07,18,13,18,23.30
2015,07,18,13,19,23.40
2015,07,18,13,20,23.50
2015,07,18,13,21,23.60
2015,07,18,13,22,23.60
2015,07,18,13,23,23.70
2015,07,18,13,24,23.80
2015,07,18,13,25,23.90
2015,07,18,13,26,23.90
2015,07,18,13,27,23.90
2015,07,18,13,28,24.00
2015,07,18,13,29,24.00
2015,07,18,13,30,24.10
2015,07,18,13,31,24.10
2015,07,18,13,32,24.20
2015,07,18,13,33,24.20
2015,07,18,13,34,24.30
2015,07,18,13,35,24.30
2015,07,18,13,36,24.30
2015,07,18,13,37,24.40
2015,07,18,13,38,24.40
2015,07,18,13,39,24.50
2015,07,18,13,40,24.50
2015,07,18,13,41,24.50
2015,07,18,13,42,24.50
2015,07,18,13,43,24.50
2015,07,18,13,44,24.60
2015,07,18,13,45,24.80
2015,07,18,13,46,24.90
2015,07,18,13,47,25.10
2015,07,18,13,48,25.20
2015,07,18,13,49,25.30
2015,07,18,13,50,25.30
2015,07,18,13,51,25.40
2015,07,18,13,52,25.40
2015,07,18,13,53,25.40
2015,07,18,13,54,25.40
2015,07,18,13,55,25.30
2015,07,18,13,56,25.20
2015,07,18,13,57,25.30
2015,07,18,13,58,25.30
2015,07,18,13,59,25.40
2015,07,18,14,00,25.50
2015,07,18,14,01,25.60
2015,07,18,14,02,25.70
2015,07,18,14,03,25.80
2015,07,18,14,04,25.90
2015,07,18,14,05,25.90
2015,07,18,14,06,25.90
2015,07,18,14,07,26.00
2015,07,18,14,08,26.10
2015,07,18,14,09,26.10
2015,07,18,14,10,26.10
2015,07,18,14,11,26.10
2015,07,18,14,12,26.10
2015,07,18,14,13,26.00
2015,07,18,14,14,26.00
2015,07,18,14,15,25.90
2015,07,18,14,16,25.90
2015,07,18,14,17,25.80
2015,07,18,14,18,25.80
2015,07,18,14,19,25.80
2015,07,18,14,20,25.80
2015,07,18,14,21,25.80
2015,07,18,14,22,25.80
2015,07,18,14,23,25.90
2015,07,18,14,24,25.90
2015,07,18,14,25,25.90
2015,07,18,14,26,25.90
2015,07,18,14,27,25.90
2015,07,18,14,28,25.90
2015,07,18,14,29,25.90
2015,07,18,14,30,25.90
2015,07,18,14,31,25.90
2015,07,18,14,32,25.90
2015,07,18,14,33,25.90
2015,07,18,14,34,25.90
2015,07,18,14,35,25.90
2015,07,18,14,36,25.90
2015,07,18,14,37,26.00
2015,07,18,14,38,26.00
2015,07,18,14,39,26.10
2015,07,18,14,40,26.10
2015,07,18,14,41,26.10
2015,07,18,14,42,26.10
2015,07,18,14,43,26.20
2015,07,18,14,44,26.20
2015,07,18,14,45,26.30
2015,07,18,14,46,26.30
2015,07,18,14,47,26.30
2015,07,18,14,48,26.40
2015,07,18,14,49,26.40
2015,07,18,14,50,26.50
2015,07,18,14,51,26.50
2015,07,18,14,52,26.50
2015,07,18,14,53,26.60
2015,07,18,14,54,26.70
2015,07,18,14,55,26.80
2015,07,18,14,56,26.80
2015,07,18,14,57,26.80
2015,07,18,14,58,26.80
2015,07,18,14,59,26.80
2015,07,18,15,00,26.80
2015,07,18,15,01,26.80
2015,07,18,15,02,26.90
2015,07,18,15,03,26.90
2015,07,18,15,04,26.90
2015,07,18,15,05,27.00
2015,07,18,15,06,27.10
2015,07,18,15,07,27.20
2015,07,18,15,08,27.30
2015,07,18,15,09,27.40
2015,07,18,15,10,27.50
2015,07,18,15,11,27.60
2015,07,18,15,12,27.80
2015,07,18,15,13,27.80
2015,07,18,15,14,27.90
2015,07,18,15,15,27.90
2015,07,18,15,16,28.00
2015,07,18,15,17,28.00
2015,07,18,15,18,28.10
2015,07,18,15,19,28.10
2015,07,18,15,20,28.20
2015,07,18,15,21,28.20
2015,07,18,15,22,28.30
2015,07,18,15,23,28.30
2015,07,18,15,24,28.40
2015,07,18,15,25,28.40
2015,07,18,15,26,28.30
2015,07,18,15,27,28.30
2015,07,18,15,28,28.30
2015,07,18,15,29,28.30
2015,07,18,15,30,28.30
2015,07,18,15,31,28.30
2015,07,18,15,32,28.30
2015,07,18,15,33,28.40
2015,07,18,15,34,28.40
2015,07,18,15,35,28.50
2015,07,18,15,36,28.60
2015,07,18,15,37,28.50
2015,07,18,15,38,28.50
2015,07,18,15,39,28.50
2015,07,18,15,40,28.50
2015,07,18,15,41,28.50
2015,07,18,15,42,28.60
2015,07,18,15,43,28.60
2015,07,18,15,44,28.60
2015,07,18,15,45,28.50
2015,07,18,15,46,28.40
2015,07,18,15,47,28.40
2015,07,18,15,48,28.40
2015,07,18,15,49,28.40
2015,07,18,15,50,28.50
2015,07,18,15,51,28.40
2015,07,18,15,52,28.40
2015,07,18,15,53,28.50
2015,07,18,15,54,28.50
2015,07,18,15,55,28.50
2015,07,18,15,56,28.60
2015,07,18,15,57,28.70
2015,07,18,15,58,28.70
2015,07,18,15,59,28.80
2015,07,18,16,00,28.80
2015,07,18,16,01,28.90
2015,07,18,16,02,28.90
2015,07,18,16,03,29.00
2015,07,18,16,04,29.00
2015,07,18,16,05,29.10
2015,07,18,16,06,29.10
2015,07,18,16,07,29.10
2015,07,18,16,08,29.00
2015,07,18,16,09,28.90
2015,07,18,16,10,28.80
2015,07,18,16,11,28.70
2015,07,18,16,12,28.50
2015,07,18,16,13,28.40
2015,07,18,16,14,28.30
2015,07,18,16,15,28.10
2015,07,18,16,16,27.90
2015,07,18,16,17,27.80
2015,07,18,16,18,27.70
2015,07,18,16,19,27.70
2015,07,18,16,20,27.60
2015,07,18,16,21,27.50
2015,07,18,16,22,27.50
2015,07,18,16,23,27.40
2015,07,18,16,24,27.40
2015,07,18,16,25,27.50
2015,07,18,16,26,27.60
2015,07,18,16,27,27.70
2015,07,18,16,28,27.80
2015,07,18,16,29,27.80
2015,07,18,16,30,27.90
2015,07,18,16,31,27.90
2015,07,18,16,32,28.00
2015,07,18,16,33,28.10
2015,07,18,16,34,28.20
2015,07,18,16,35,28.30
2015,07,18,16,36,28.30
2015,07,18,16,37,28.40
2015,07,18,16,38,28.50
2015,07,18,16,39,28.60
2015,07,18,16,40,28.70
2015,07,18,16,41,28.80
2015,07,18,16,42,28.90
2015,07,18,16,43,29.00
2015,07,18,16,44,29.10
2015,07,18,16,45,29.20
2015,07,18,16,46,29.30
2015,07,18,16,47,29.30
2015,07,18,16,48,29.30
2015,07,18,16,49,29.30
2015,07,18,16,50,29.40
2015,07,18,16,51,29.40
2015,07,18,16,52,29.40
2015,07,18,16,53,29.50
2015,07,18,16,54,29.60
2015,07,18,16,55,29.70
2015,07,18,16,56,29.70
2015,07,18,16,57,29.80
2015,07,18,16,58,29.80
2015,07,18,16,59,29.90
2015,07,18,17,00,30.00
2015,07,18,17,01,30.10
2015,07,18,17,02,30.20
2015,07,18,17,03,30.20
2015,07,18,17,04,30.20
2015,07,18,17,05,30.10
2015,07,18,17,06,30.00
2015,07,18,17,07,29.90
2015,07,18,17,08,29.80
2015,07,18,17,09,29.80
2015,07,18,17,10,29.80
2015,07,18,17,11,29.80
2015,07,18,17,12,29.80
2015,07,18,17,13,29.80
2015,07,18,17,14,29.80
2015,07,18,17,15,29.90
2015,07,18,17,16,29.90
2015,07,18,17,17,30.00
2015,07,18,17,18,30.00
2015,07,18,17,19,30.00